Other Public Products
Issued by NWS Grand Forks, ND

Home | Current Version | Previous Version | Text Only | Print | Product List | Glossary Off
Versions: 1 2 3 4 5 6 7 8 9 10 11 12 13 14 15 16 17 18 19 20 21 22 23 24 25 26 27 28 29 30 31 32 33 34 35 36 37 38 39 40 41 42 43 44 45 46 47 48 49 50

000
FPUS83 KFGF 231231
OPUFGF
PRAIRIE TO PINES WEATHER ROUNDUP
NATIONAL WEATHER SERVICE EASTERN NORTH DAKOTA/GRAND FORKS ND
700 AM CDT MON APR 23 2018

 **SATELLITE DATA USED TO AUGMENT SKY COVER AT AUTOMATED STATIONS**
 *****  WEATHER ACROSS EASTERN NORTH DAKOTA  *****

CITY           SKY/WX    TMP DP  RH WIND       PRES   REMARKS
GRAND FORKS    FAIR      37  36  96 W6        30.16R
6HR MIN TEMP:  35; 6HR MAX TEMP:  47;

GRND FORKS AFB FAIR      41  35  80 NW5       30.16R
GRND FORKS NWS   N/A     40  37  87 W1        30.14R
BUXTON           N/A     41  41  98 S6          N/A
DEVILS LAKE    FAIR      33  29  85 N7        30.20R
6HR MIN TEMP:  33; 6HR MAX TEMP:  45;

FARGO          CLOUDY    41  36  82 S8        30.19R
6HR MIN TEMP:  41; 6HR MAX TEMP:  47;

WAHPETON ARPT  FAIR      36  32  87 SE5       30.21R
$$

 *****  WEATHER ACROSS CENTRAL AND WESTERN NORTH DAKOTA  *****

CITY           SKY/WX    TMP DP  RH WIND       PRES   REMARKS
JAMESTOWN      FAIR      38  33  82 N5        30.18R
6HR MIN TEMP:  36; 6HR MAX TEMP:  44;

BISMARCK       FAIR      39  35  86 E3        30.17R
6HR MIN TEMP:  36; 6HR MAX TEMP:  47;

MINOT          FAIR      37  29  72 NW12      30.22R
6HR MIN TEMP:  35; 6HR MAX TEMP:  44;

MINOT AFB      FAIR      29  26  87 NW9       30.21R WCI  21
6HR MIN TEMP:  29; 6HR MAX TEMP:  44;

GARRISON         N/A     39  28  64 NE7       30.19R
6HR MIN TEMP:  35; 6HR MAX TEMP:  44;

WILLISTON      FAIR      38  32  79 N9        30.25R
6HR MIN TEMP:  34; 6HR MAX TEMP:  43;

DICKINSON      FAIR      41  28  60 N10       30.16R
6HR MIN TEMP:  33; 6HR MAX TEMP:  45;

HETTINGER      FAIR      39  33  79 N5        30.15R
6HR MIN TEMP:  30; 6HR MAX TEMP:  48;

$$

 *****  OTHER OBSERVATIONS NORTHEAST NORTH DAKOTA  *****

CITY           SKY/WX    TMP DP  RH WIND       PRES   REMARKS
WALHALLA       FAIR      41  34  75 NW12      30.18R
LANGDON        NOT AVBL
CAVALIER         N/A     45  34  65 NW12      30.16R
GRAFTON        NOT AVBL
CANDO          FAIR      32  32 100 N8        30.22R WCI  25
FORT TOTTEN      N/A     41  29  62 N2        29.95S
ROLLA          FAIR      36  34  93 NW9       30.21R
RUGBY          NOT AVBL
 ***** THE ABOVE OBSERVATIONS ARE NON NWS ARE NOT QUALITY
        CONTROLLED AND MAY MIS-REPORT RAIN FOR SNOW...
$$

 *****  OTHER OBSERVATIONS SOUTHEAST NORTH DAKOTA *****

CITY           SKY/WX    TMP DP  RH WIND       PRES   REMARKS
COOPERSTOWN    FAIR      36  36 100 S5        30.18R
VALLEY CITY    NOT AVBL
OAKES            N/A     36  36 100 S7        30.19S
GWINNER          N/A     37  36  93 SW9       30.19R
SHEYENNE NWR     N/A     36  36 100 SW2       29.95S
BUFFALO          N/A     41  38  87 SE8         N/A
WYNDMERE       NOT AVBL
 ***** THE ABOVE OBSERVATIONS ARE NON NWS ARE NOT QUALITY
       CONTROLLED AND MAY MIS-REPORT RAIN FOR SNOW...
$$

  *****  WEATHER ACROSS NORTHERN MINNESOTA  *****

CITY           SKY/WX    TMP DP  RH WIND       PRES   REMARKS
FLAG ISLAND    FAIR      43  37  81 W12       30.10R
WARROAD        FAIR      41  37  87 SW8       30.14R
ROSEAU         FAIR      41  36  81 SW5       30.14R
HALLOCK        FAIR      34  34 100 S3        30.16R FOG
THF RVR FALLS  FAIR      40  37  89 SW9       30.17R
6HR MIN TEMP:  40; 6HR MAX TEMP:  49;

HALSTAD        NOT AVBL
FOSSTON        FAIR      37  34  87 S9        30.19R
BAUDETTE       FAIR      45  37  73 SW6       30.13R
6HR MIN TEMP:  45; 6HR MAX TEMP:  51;

WASKISH        FAIR      43  36  75 SW3       30.16R
CROOKSTON      FAIR      39  37  93 S7        30.18R FOG
$$
  *****  WEATHER ACROSS CENTRAL AND WEST MINNESOTA  *****

CITY           SKY/WX    TMP DP  RH WIND       PRES   REMARKS
BEMIDJI        FAIR      43  33  69 SW6       30.17S
6HR MIN TEMP:  42; 6HR MAX TEMP:  47;

PARK RAPIDS    FAIR      36  31  82 S5        30.19S
6HR MIN TEMP:  34; 6HR MAX TEMP:  44;

WADENA         FAIR      34  30  86 CALM      30.21S
DETROIT LAKES  FAIR      41  34  75 S3        30.21R
MOORHEAD       MOCLDY    37  36  93 S9        30.21R
FERGUS FALLS   FAIR      39  34  81 SE8       30.20S
ELBOW LAKE     FAIR      38  34  85 E7        30.22R
MORRIS MN      FAIR      37  36  93 SE5       30.21S
STAPLES        FAIR      36  34  93 CALM      30.22R
WHEATON        FAIR      34  32  93 SE6       30.23R FOG
$$
  *****  WEATHER ELSEWHERE ACROSS MINNESOTA  *****

CITY           SKY/WX    TMP DP  RH WIND       PRES   REMARKS
DULUTH         FAIR      43  34  70 W8        30.22R
6HR MIN TEMP:  39; 6HR MAX TEMP:  45;

INTRNTL FALLS  CLOUDY    45  35  68 SW6       30.14R
6HR MIN TEMP:  43; 6HR MAX TEMP:  47;

ELY            FAIR      37  30  75 SW3       30.19S
CLOQUET        FAIR      36  28  75 S3        30.22S
BRAINERD       FAIR      30  27  88 CALM      30.22R
6HR MIN TEMP:  28; 6HR MAX TEMP:  37;

HIBBING        FAIR      28  26  92 CALM      30.20R
6HR MIN TEMP:  25; 6HR MAX TEMP:  32;

ALEXANDRIA     FAIR      40  32  73 CALM      30.23R
6HR MIN TEMP:  38; 6HR MAX TEMP:  44;

SAINT CLOUD    FAIR      32  32 100 CALM      30.24R FOG
6HR MIN TEMP:  30; 6HR MAX TEMP:  38;

MINNEAPOLIS    MOCLDY    43  37  79 E3        30.25S
6HR MIN TEMP:  42; 6HR MAX TEMP:  49;

$$

  *****  WEATHER ACROSS SOUTH DAKOTA  *****

CITY           SKY/WX    TMP DP  RH WIND       PRES   REMARKS
SIOUX FALLS    FAIR      35  32  88 CALM      30.21R
6HR MIN TEMP:  33; 6HR MAX TEMP:  43;

BROOKINGS      FAIR      36  32  85 CALM      30.21S
WATERTOWN      FAIR      37  34  89 S5        30.19S
6HR MIN TEMP:  35; 6HR MAX TEMP:  42;

HURON            N/A     38  36  92 SE7       30.18S FOG
6HR MIN TEMP:  38; 6HR MAX TEMP:  44;

SISSETON         N/A     33  32  96 SE5       30.19R
ABERDEEN       FAIR      34  32  92 CALM      30.20R FOG
6HR MIN TEMP:  32; 6HR MAX TEMP:  41;

MITCHELL       FAIR      38  36  92 SE7       30.20R FOG
PIERRE         FAIR      35  33  92 E3        30.13S
6HR MIN TEMP:  34; 6HR MAX TEMP:  45;

MOBRIDGE       FAIR      39  33  79 E6        30.12R
RAPID CITY     FAIR      38  35  89 SE6       30.07R
6HR MIN TEMP:  36; 6HR MAX TEMP:  44;

$$

  *****  SOME WEATHER IN NEARBY STATES *****

CITY           SKY/WX    TMP DP  RH WIND       PRES   REMARKS
GLASGOW MT     FAIR      42  32  67 NE6       30.27S
6HR MIN TEMP:  42; 6HR MAX TEMP:  46;

GREAT FALLS MT CLOUDY    38  25  59 CALM      30.32R
6HR MIN TEMP:  37; 6HR MAX TEMP:  42;

CHEYENNE WY    FAIR      34  33  96 W7        30.09S
6HR MIN TEMP:  33; 6HR MAX TEMP:  42;

SCOTTSBLUFF NE FAIR      34  34 100 E8        30.10R
6HR MIN TEMP:  34; 6HR MAX TEMP:  42;

OMAHA NE       FAIR      38  30  73 N9        30.19R
6HR MIN TEMP:  36; 6HR MAX TEMP:  54;

DES MOINES IA  MOCLDY    48  31  51 NE6       30.20R
6HR MIN TEMP:  48; 6HR MAX TEMP:  55;

DAVENPORT IA   FAIR      40  29  64 NE8       30.22R
6HR MIN TEMP:  38; 6HR MAX TEMP:  47;

CHICAGO IL     CLOUDY    45  28  51 NE10      30.21S
6HR MIN TEMP:  43; 6HR MAX TEMP:  47;

EAU CLAIRE WI  FAIR      32  25  75 NE3       30.27S
6HR MIN TEMP:  31; 6HR MAX TEMP:  42;

LA CROSSE WI   FAIR      40  32  73 CALM      30.28R
6HR MIN TEMP:  36; 6HR MAX TEMP:  45;

$$

  *****  SOME NATIONAL WEATHER *****

CITY           SKY/WX    TMP DP  RH WIND       PRES   REMARKS
LA GUARDIA NY  FAIR      49  30  48 NE8       30.47R



USA.gov is the U.S. government's official web portal to all federal, state and local government web resources and services.